Regional Weather Roundup
Issued by NWS Mt. Holly, NJ

Home | Current Version | Previous Version | Text Only | Print | Product List | Glossary On
Versions: 1 2 3 4 5 6 7 8 9 10 11 12 13 14 15 16 17 18 19 20 21 22 23 24 25 26 27 28 29 30 31 32 33 34 35 36 37 38 39 40 41 42 43 44 45 46 47 48 49 50
000
ASUS41 KPHI 270810
RWRPHI

REGIONAL WEATHER ROUNDUP
NATIONAL WEATHER SERVICE MOUNT HOLLY NJ
300 AM EST TUE JAN 27 2015

NOTE:  "FAIR" INDICATES FEW OR NO CLOUDS BELOW 12,000 FEET WITH NO
SIGNIFICANT WEATHER AND/OR OBSTRUCTIONS TO VISIBILITY.

 * = STATION DOES NOT REPORT PRECIPITATION (E.G. RAIN, SNOW, ETC.)
        OR FOG.

NJZ015>026-270900-
SOUTHERN NEW JERSEY

CITY           SKY/WX    TMP DP  RH WIND       PRES   REMARKS
POMONA         LGT SNOW  25  22  88 N17G28    29.62S FOG     WCI  12
RIO GRANDE*    CLOUDY    28  19  69 N15G21    29.63R WCI  17
MILLVILLE      CLOUDY    28  20  71 N16G25    29.65S WCI  16
WRIGHTSTOWN    LGT SNOW  23  20  87 N16G24    29.65R FOG     WCI  10
MOUNT HOLLY    LGT SNOW  24  20  84 N13       29.69R FOG     WCI  12
TRENTON        LGT SNOW  23  18  81 N13       29.69R WCI  11

$$
NJZ001>014-270900-
NORTHERN NEW JERSEY

CITY           SKY/WX    TMP DP  RH WIND       PRES   REMARKS
SUSSEX         LGT SNOW  22  17  81 NE9       29.71S WCI  12
ANDOVER*         N/A     21  17  84 VRB6      29.69S WCI  13
MORRISTOWN     LGT SNOW  25  19  80 N9G17     29.70S WCI  15
NEWARK         LGT SNOW  22  20  92 N21G31    29.69S VSB 3/4 WCI   6
TETERBORO      LGT SNOW  21  18  86 N13G18    29.69S FOG     WCI   9
CALDWELL       LGT SNOW  21  17  84 N12       29.70S VSB 1   WCI   9
SOMERVILLE     LGT SNOW  24  18  77 N8G17     29.69R WCI  15
ALLAIRE*       CLOUDY    25  18  74 N14       29.63S WCI  13
TOMS RIVER*    CLOUDY    25  21  86 N14G20    29.64S WCI  13

$$
PAZ043-044-047-054-055-060>062-066>071-270900-
EASTERN PENNSYLVANIA

CITY           SKY/WX    TMP DP  RH WIND       PRES   REMARKS
PHILADELPHIA   LGT SNOW  26  19  74 N14       29.72R WCI  14
NORTH PHILA    LGT SNOW  26  18  71 N12       29.72R WCI  16
BLUE BELL      CLOUDY    27  21  80 N5        29.70S WCI  21
DOYLESTOWN     LGT SNOW  22  19  89 N8        29.69S FOG     WCI  12
POTTSTOWN      CLOUDY    26  16  65 N7        29.72S WCI  18
LANCASTER      CLOUDY    26  19  74 NW10      29.73S WCI  16
COATESVILLE    CLOUDY    27  21  80 N12       29.69F WCI  16
READING        CLOUDY    27  18  69 N8        29.72F WCI  19
ALLENTOWN      CLOUDY    26  15  63 N9        29.72F WCI  17
MOUNT POCONO   CLOUDY    19  13  77 NW13G18   29.62F WCI   6
HAZLETON       CLOUDY    21  18  86 NW8       29.71S WCI  12
WILKES BARRE   CLOUDY    22  14  71 N3        29.74S

$$
DEZALL-MDZ008-012-015-019-020-270900-
DELAWARE AND EASTERN MARYLAND

CITY           SKY/WX    TMP DP  RH WIND       PRES   REMARKS
WILMINGTON     CLOUDY    27  18  69 N14       29.72S WCI  16
DOVER          CLOUDY    28  25  91 NW13      29.68R WCI  17
GEORGETOWN     FLURRIES  29  24  82 N10       29.66R WCI  20
EASTON         CLOUDY    30  26  87 N12       29.73S WCI  20
PATUXENT       CLOUDY    28  23  81 NW20      29.70S WCI  15
OCEAN CITY     CLOUDY    30  27  88 N15G22    29.63R WCI  19
WALLOPS ISLAND LGT SNOW  30  28  92 N14G20    29.64S FOG     WCI  19
CAMBRIDGE      MOCLDY    32  27  80 CALM      29.69R
SALISBURY      FLURRIES  31  26  82 N13       29.65S WCI  21

$$
PAZ001-021-NYZ056-072-MDZ011-DCZ001-270900-
OTHER NEARBY LOCATIONS

CITY           SKY/WX    TMP DP  RH WIND       PRES   REMARKS
HARRISBURG     FLURRIES  26  21  81 NW9       29.76R WCI  17
STATE COLLEGE  FLURRIES  21  18  91 N5        29.76S WCI  14
WILLIAMSPORT   FLURRIES  22  15  75 NW6       29.82R WCI  14
BINGHAMTON     CLOUDY    15  10  80 N9        29.74F WCI   3
NEW YORK CITY  LGT SNOW  22  17  81 NE8G18    29.69S VSB 3/4 WCI  12
BALTIMORE      FLURRIES  27  22  81 NW8       29.73S WCI  19
WASHINGTON DC  LGT SNOW  30  24  78 N15       29.75S WCI  19

$$


USA.gov is the U.S. government's official web portal to all federal, state and local government web resources and services.